Location: Unspecified
(0.0000°N, 0.0000°E)
Time: 04:00:42
(UTC+02:00)

Daily predictions for brighter satellites

Satellite Brightness Start Highest point End
(mag) Time Altitude Azimuth Time Altitude Azimuth Time Altitude Azimuth
ATLAS 3B R/B 4.2 05:04:52 26° ENE 05:04:58 26° ENE 05:10:09 10° ESE
COSMOS 2455 4.5 05:25:46 21° NNE 05:28:28 30° ENE 05:33:37 10° SE
Cosmos 2360 Rocket 3.9 05:55:25 20° S 05:55:25 20° S 05:57:08 10° S
Cosmos 1937 Rocket 4.2 05:49:58 34° SSE 05:51:49 50° ESE 05:56:49 10° NNE
ADEOS II 2.4 05:49:23 10° NNE 05:53:42 60° NE 05:53:42 60° NE
Cosmos 1743 4.4 05:59:30 10° NNE 06:02:55 33° E 06:06:25 10° SSE
ARIANE 5 R/B 3.1 06:05:36 61° W 06:06:46 87° N 06:38:04 10° E
ARIANE 5 R/B 3.1 06:05:36 61° W 06:06:46 87° N 06:38:05 10° E
ARIANE 5 R/B 3.1 06:05:37 61° W 06:06:47 87° N 06:38:05 10° E
NATO 3D Rocket 4.2 06:06:09 41° SSW 06:07:11 46° SSE 06:11:53 10° E
Feng Yun 1-1 Rocket 4.2 06:04:30 10° N 06:10:17 81° WNW 06:16:12 10° SSW
ADEOS Rocket 3.8 06:04:48 10° N 06:08:51 35° NNW 06:08:51 35° NNW
USA 234 3.6 06:07:37 10° NE 06:14:03 63° SE 06:20:29 10° SSW
GPS 2-12 Rocket1 2.9 06:15:05 81° SW 06:15:09 81° SSW 06:19:59 10° ESE
COBE Rocket 4.0 06:13:46 10° NNE 06:18:23 67° E 06:22:59 10° S
ARIANE 5 DEB (SYLDA) 3.2 06:19:13 78° ESE 06:19:13 78° ESE 06:25:23 10° E
MOS 1 Rocket 3.6 06:14:48 10° NNE 06:19:54 77° ESE 06:25:16 10° S
CZ-4C R/B 3.3 06:16:36 10° NNW 06:24:26 69° ENE 06:32:17 10° SSE
Cosmos 2333 Rocket 3.9 06:19:50 10° NNE 06:24:49 32° ENE 06:29:47 10° SE
Cosmos 1605 Rocket 4.0 06:22:57 10° NNW 06:28:57 53° W 06:35:06 10° SSW
Cosmos 304 Rocket 3.8 06:24:24 10° N 06:29:11 81° ENE 06:34:00 10° SSE
Thor Agena Rocket 4.0 06:24:05 10° SSE 06:29:15 63° ENE 06:34:27 10° N
ARIANE 44P R/B 3.5 06:29:15 27° NNW 06:30:11 32° NNE 06:36:49 10° ENE
GPS 2-04 Rocket1 2.8 06:31:35 46° NW 06:32:50 89° NE 06:37:10 10° SE
Cosmos 2227 4.1 06:27:41 10° SSW 06:33:24 76° WNW 06:39:08 10° N
GPS 2-17 Rocket1 3.9 06:33:08 30° NNW 06:33:31 30° NNW 06:37:20 10° NE
Meteor 2-15 4.3 06:27:48 10° S 06:33:55 81° W 06:39:58 10° N
Radarsat Rocket 4.1 06:28:15 10° NNE 06:34:17 76° ESE 06:40:05 10° S
Meteosat 1 Rocket2 4.4 06:33:07 29° WNW 06:36:59 83° SSW 06:47:13 10° ESE
Meteor 1-31 Rocket 2.8 06:34:11 10° N 06:38:02 58° W 06:41:55 10° SSW
Ariane H10 1.7 06:38:09 54° N 06:38:09 54° N 06:40:51 10° ENE
Cosmos 1932 4.5 06:32:59 10° NNW 06:39:26 65° WSW 06:45:50 10° SSE
ARIANE 5 R/B 2.9 06:40:17 38° W 06:41:38 85° N 06:55:00 10° E
Genesis I 3.4 06:40:45 38° WSW 06:41:46 48° WNW 06:45:36 10° N
CZ-2C R/B 4.1 06:38:22 10° S 06:42:26 36° WSW 06:44:12 26° WNW
COSMOS 2428 3.0 06:39:47 13° NW 06:44:30 44° WSW 06:49:54 10° S
ARIANE 5 DEB (SYLDA) 2.8 06:42:15 26° W 06:45:33 81° N 06:50:20 10° E
ARIANE 5 DEB (SYLDA) 1.7 06:47:50 52° NW 06:48:09 63° N 06:50:51 10° E
Cosmos 2058 Rocket 3.9 06:44:24 10° N 06:48:37 52° E 06:52:54 10° SSE
GPS 2-14 Rocket1 4.3 06:48:08 19° NW 06:49:09 20° NNW 06:52:14 10° NNE
CZ-3 R/B 3.9 06:38:02 21° W 06:49:43 32° SW 06:57:13 10° SSE
Cosmos 1515 3.6 06:47:57 10° S 06:51:48 86° W 06:55:39 10° N
BREEZE-M DEB (TANK) 3.4 06:52:44 17° NNW 06:52:44 17° NNW 06:54:33 10° N
Meteor 2-15 Rocket 4.4 06:46:21 10° SSW 06:52:23 64° W 06:58:23 10° N
Cosmos 1867 3.9 06:49:44 13° NW 06:54:09 41° WSW 06:59:11 10° S
Cosmos 2061 Rocket 4.2 06:48:20 10° N 06:54:42 83° E 07:01:08 10° S
Cosmos 2237 Rocket 3.0 06:49:49 10° N 06:55:17 55° ENE 07:00:45 10° SSE
ATLAS 3B R/B 3.3 06:52:16 19° WNW 06:55:18 28° WSW 07:00:36 10° S
Cosmos 1802 Rocket 4.1 06:56:03 10° N 07:02:10 83° E 07:08:20 10° S
Cosmos 1626 Rocket 3.8 07:00:05 10° SSW 07:04:21 45° W 07:08:33 10° NNW
SL-24 R/B 3.8 07:00:56 10° N 07:04:35 50° WNW 07:08:08 10° SSW
USA 215 3.4 06:58:23 10° SSE 07:04:44 52° SW 07:11:03 10° NW
Cosmos 2100 Rocket 4.0 06:58:40 10° N 07:04:54 69° W 07:11:13 10° S
CZ-3B DEB 4.2 07:01:53 13° WSW 07:07:52 41° NW 07:25:11 10° NNE
ARIANE 5 R/B 0.4 07:06:43 21° W 07:07:53 89° NE 07:10:19 10° E
Cosmos 1980 3.8 07:02:43 10° NNW 07:08:23 87° ENE 07:14:05 10° SSE
Cosmos 1340 2.7 07:08:40 10° S 07:12:28 83° E 07:16:13 10° N
SL-16 R/B 4.5 07:08:34 10° NNE 07:13:19 28° ENE 07:18:05 10° SE
USA 238 DEB 4.0 07:07:03 10° NW 07:13:48 50° WSW 07:20:36 10° S
USA 238 3.9 07:07:09 10° NW 07:13:54 51° WSW 07:20:42 10° S
COSMOS 2455 4.0 07:09:39 10° WNW 07:14:07 22° WSW 07:18:36 10° SSW
Cosmos 923 Rocket 4.2 07:09:19 10° NNW 07:14:25 49° WSW 07:19:31 10° S
Cosmos 1666 3.2 07:12:44 10° NNW 07:16:16 37° W 07:19:49 10° SSW
Meteor 2-9 Rocket 4.3 07:11:13 10° NNW 07:16:54 62° W 07:22:42 10° S
Ariane Rocket 3.2 07:13:05 10° N 07:17:58 48° WNW 07:22:52 10° SSW
Ariane 42P Rocket 3.9 07:16:54 11° W 07:20:40 72° N 07:40:19 10° E
Cosmos 1607 4.4 07:16:52 10° NW 07:22:37 39° WSW 07:28:28 10° S
Cosmos 1125 Rocket 3.5 07:17:28 10° SSW 07:22:38 66° WNW 07:27:45 10° N
